Regional Weather Roundup
Issued by NWS Newport/Morehead, NC

Current Version | Previous Version | Text Only | Print | Product List | Glossary Off
Versions: 1 2 3 4 5 6 7 8 9 10 11 12 13 14 15 16 17 18 19 20 21 22 23 24 25 26 27 28 29 30 31 32 33 34 35 36 37 38 39 40 41

000
ASUS42 KMHX 160214
RWRMHX
WEATHER ROUNDUP FOR EASTERN NORTH CAROLINA
NATIONAL WEATHER SERVICE NEWPORT/MOREHEAD CITY NC
1000 PM EDT TUE AUG 15 2017

NOTE: "FAIR" INDICATES FEW OR NO CLOUDS BELOW 12,000 FEET
WITH NO SIGNIFICANT WEATHER AND/OR OBSTRUCTIONS TO VISIBILITY

NCZ015>017-031-032-045>047-102-103-160300-
NORTH COAST

CITY           SKY/WX    TMP DP  RH WIND       PRES   REMARKS
EDENTON        LGT RAIN  81  77  89 SE6       29.88S
ELIZABETH CITY CLOUDY    77  77 100 SE5       29.88R
KITTY HAWK     HVY RAIN  76  75  98 CALM      29.88R
MANTEO         HVY RAIN  77  75  93 NE15G28   29.89R VSB 1

$$

NCZ045>047-081-094-103-104-160300-
CENTRAL COAST

CITY           SKY/WX    TMP DP  RH WIND       PRES   REMARKS
FRISCO         CLOUDY    83  75  77 SW6       29.89R

$$

NCZ095-097-098-100-101-160300-
SOUTHERN COAST

CITY           SKY/WX    TMP DP  RH WIND       PRES   REMARKS
BEAUFORT       CLOUDY    83  81  94 SW7       29.87S
CEDAR ISLAND   NOT AVBL
JACKSONVILLE   LGT RAIN  77  76  96 W6        29.87S
PINEY ISLAND   CLOUDY   N/A N/A N/A CALM      29.87S
WILMINGTON     CLOUDY    83  79  88 CALM      29.89S


$$

NCZ011>013-027>030-043-044-078>080-089-090>093-098-160300-
COASTAL PLAIN

CITY           SKY/WX    TMP DP  RH WIND       PRES   REMARKS
AHOSKIE          N/A     77  77  99 CALM      29.89R
CLINTON        PTCLDY    78  77  96 CALM      29.90R
ELIZABETHTOWN  NOT AVBL
GOLDSBORO      MOCLDY    80  74  80 N6        29.92R
GREENVILLE     CLOUDY    81  79  94 W3        29.92R
HAVELOCK       CLOUDY    81  78  91 SW3       29.88F
KENANSVILLE    CLOUDY    77  77 100 CALM      29.89S FOG
KINSTON        CLOUDY    79  77  94 CALM      29.89R
NEW BERN       CLOUDY    79  79 100 S5        29.88S
RICHLANDS      CLOUDY    77  75  93 S3        29.89R
ROCKY MOUNT    LGT RAIN  75  74  96 S5        29.92R
WASHINGTON     LGT RAIN  77  74  88 CALM      29.89R
WHITEVILLE     CLOUDY    79  77  95 CALM      29.90R

$$

AMZ130-135-150-152-154-156-158-170-250-252-270-ANZ085-086-088-633-658-670-160300-
MARINE OBSERVATIONS

STATION/POSITION TIME  TEMP    WIND        PRES    WAVE   SWELL
                       AIR SEA DIR/SP/G            HT/PER HT/PER
                 (UTC) (F)     (DEG/KT/KT) (MB)    (FT/S) (FT/S)
CHESAPEAKE LIGHT NOT AVBL
64 E VA BEACH    0150   79 80   40/  6/  6 1012.0    7/10   7/10
DUCK             0148   75 78  140/ 14/ 16 1010.6
2 E DUCK         0200      79                N/A     3/ 9   2/11
OREGON INLET     0148          110/  3/  5   N/A
13E OREGON INLT  0118      81                N/A     5/10   5/10
HATTERAS CG      0148   83 84  200/  2/  5 1012.0
DIAMOND BUOY     0150   84 84  250/  8/  8 1011.9    5/ 9   5/ 9
CAPE LOOKOUT     0200   82     240/  8/ 11 1011.6
BEAUFORT LAB     0148   83 83  240/  5/ 12 1011.1
30 SE NEW RVR IN 0108   81 83  230/ 14/ 17 1011.5
30 SE NEW RVR IN 0143      83                N/A     3/ 8
27 SE WRIGHTSVLE 0108   83 83  220/ 14/ 17 1012.0
5 SE WRIGHTSVLE  0108   83 83  250/ 12/ 16 1012.2
225 S CAPE HAT   0150   84 84  250/ 14/ 17 1013.8    5/ 5   2/ 8
41 SE CHARLESTON 0200   83 83  230/ 14/ 16 1013.0

$$




USA.gov is the U.S. government's official web portal to all federal, state and local government web resources and services.